Total_Precipitation_Accumulation
0.99 1.00 1.01 1.00 1.02 0.97 0.87 0.74 0.68 0.67 0.66 0.69 0.72 0.74 0.72 0.71 0.73 0.81 0.92 1.11 1.23 1.25 1.25 1.30 1.31 1.30 1.28 1.26 1.33 1.44 1.57 1.56 1.34 1.14 1.16 1.18 1.14 1.03 0.96 0.88 0.75 0.67 0.55
1.02 1.16 1.19 1.11 1.04 0.94 0.82 0.72 0.68 0.65 0.63 0.63 0.64 0.62 0.60 0.61 0.67 0.75 0.85 0.96 1.04 1.06 1.05 1.06 1.01 1.00 1.03 1.02 1.09 1.17 1.26 1.44 1.42 1.29 1.35 1.39 1.37 1.27 1.21 1.13 0.94 0.73 0.61
0.99 1.29 1.40 1.30 1.16 0.99 0.80 0.65 0.59 0.59 0.60 0.59 0.58 0.57 0.61 0.70 0.78 0.83 0.85 0.86 0.87 0.90 0.98 1.04 0.95 0.90 0.90 0.92 0.96 0.94 0.99 1.16 1.28 1.31 1.36 1.45 1.46 1.45 1.32 1.17 1.10 0.97 0.75
0.87 1.07 1.16 1.06 0.95 0.85 0.70 0.54 0.48 0.49 0.54 0.57 0.61 0.64 0.70 0.75 0.81 0.85 0.86 0.83 0.76 0.71 0.76 0.82 0.83 0.80 0.78 0.84 0.87 0.89 0.92 1.05 1.18 1.26 1.34 1.50 1.52 1.46 1.41 1.26 1.23 1.13 1.01
0.64 0.71 0.79 0.75 0.66 0.62 0.59 0.53 0.50 0.53 0.53 0.59 0.65 0.69 0.70 0.68 0.65 0.62 0.63 0.64 0.62 0.58 0.54 0.55 0.60 0.65 0.67 0.69 0.71 0.83 0.91 0.96 1.01 1.06 1.13 1.32 1.55 1.60 1.41 1.31 1.36 1.35 1.22
0.48 0.54 0.64 0.72 0.67 0.59 0.56 0.54 0.51 0.54 0.57 0.61 0.64 0.69 0.70 0.57 0.60 0.52 0.45 0.46 0.50 0.51 0.54 0.54 0.52 0.51 0.52 0.52 0.53 0.60 0.73 0.82 0.86 0.93 1.00 1.16 1.38 1.56 1.61 1.56 1.48 1.40 1.36
0.53 0.61 0.69 0.76 0.74 0.70 0.63 0.64 0.61 0.63 0.65 0.65 0.64 0.64 0.64 0.65 0.65 0.55 0.41 0.37 0.40 0.44 0.48 0.51 0.45 0.42 0.47 0.48 0.50 0.49 0.50 0.58 0.69 0.82 0.89 0.94 1.10 1.32 1.53 1.51 1.57 1.59 1.58
0.61 0.70 0.80 0.85 0.82 0.81 0.83 0.86 0.86 0.85 0.82 0.79 0.74 0.70 0.74 0.71 0.65 0.52 0.43 0.37 0.38 0.41 0.45 0.49 0.48 0.42 0.41 0.48 0.53 0.51 0.46 0.46 0.50 0.58 0.68 0.84 1.04 1.27 1.54 1.54 1.53 1.61 1.67
0.76 0.83 0.91 0.99 1.01 1.01 1.04 1.04 1.07 1.08 0.97 0.88 0.82 0.81 0.79 0.80 0.75 0.59 0.52 0.47 0.48 0.48 0.50 0.50 0.49 0.46 0.46 0.44 0.49 0.53 0.54 0.52 0.50 0.52 0.57 0.75 0.98 1.10 1.32 1.45 1.42 1.43 1.35
0.91 1.05 1.20 1.31 1.33 1.31 1.36 1.34 1.28 1.22 1.12 1.10 1.05 1.03 1.02 1.07 1.11 0.90 0.78 0.70 0.69 0.68 0.72 0.68 0.58 0.51 0.51 0.49 0.50 0.56 0.56 0.56 0.62 0.60 0.57 0.61 0.73 0.91 1.06 1.19 1.29 1.32 1.20
1.04 1.19 1.39 1.52 1.59 1.63 1.71 1.68 1.61 1.56 1.53 1.48 1.36 1.32 1.34 1.35 1.38 1.15 1.00 0.91 0.92 0.98 0.97 0.89 0.83 0.72 0.62 0.61 0.58 0.59 0.55 0.56 0.65 0.68 0.68 0.70 0.75 0.85 0.94 1.02 1.18 1.30 1.26
1.08 1.21 1.36 1.50 1.54 1.63 1.81 1.85 1.84 1.82 1.75 1.70 1.64 1.49 1.46 1.44 1.34 1.18 0.99 0.88 0.96 1.10 1.16 1.09 1.01 0.86 0.68 0.61 0.54 0.51 0.48 0.46 0.52 0.62 0.66 0.68 0.70 0.73 0.81 0.96 1.12 1.19 1.24
1.13 1.27 1.42 1.51 1.57 1.67 1.71 1.71 1.72 1.76 1.74 1.66 1.64 1.55 1.50 1.51 1.44 1.16 0.97 0.88 0.88 1.00 1.14 1.15 1.01 0.86 0.73 0.62 0.55 0.52 0.48 0.45 0.51 0.57 0.59 0.61 0.64 0.70 0.84 1.01 1.20 1.28 1.25
1.26 1.32 1.41 1.52 1.55 1.57 1.68 1.76 1.82 1.90 1.95 1.85 1.74 1.65 1.59 1.54 1.45 1.29 1.12 1.01 1.02 1.08 1.17 1.21 1.09 0.98 0.86 0.79 0.70 0.61 0.57 0.60 0.62 0.64 0.65 0.70 0.77 0.85 0.92 0.99 1.10 1.21 1.25
1.20 1.26 1.31 1.37 1.45 1.54 1.61 1.67 1.66 1.71 1.69 1.64 1.57 1.56 1.56 1.53 1.38 1.29 1.19 1.07 1.12 1.20 1.24 1.32 1.23 1.18 1.09 1.01 0.93 0.88 0.86 0.85 0.79 0.77 0.83 0.86 0.89 0.96 0.98 1.00 1.12 1.14 1.09
1.25 1.28 1.24 1.23 1.30 1.36 1.43 1.43 1.37 1.28 1.25 1.19 1.18 1.19 1.18 1.13 1.05 0.95 0.92 0.92 0.96 1.08 1.15 1.31 1.37 1.35 1.31 1.24 1.13 1.04 0.99 0.94 0.88 0.90 0.94 0.96 0.96 0.98 1.04 1.04 1.09 1.12 1.04
1.16 1.17 1.16 1.15 1.23 1.27 1.30 1.34 1.37 1.28 1.15 1.06 1.02 0.99 1.00 0.97 0.93 0.89 0.89 0.93 0.94 1.00 1.08 1.25 1.32 1.28 1.26 1.20 1.08 0.96 0.91 0.91 0.98 1.00 1.02 1.02 1.06 1.09 1.14 1.12 1.09 1.13 1.09
1.01 1.04 1.07 1.10 1.16 1.24 1.29 1.37 1.47 1.55 1.48 1.30 1.11 1.00 0.92 0.86 0.79 0.78 0.79 0.80 0.80 0.85 0.98 1.12 1.17 1.11 1.08 1.04 1.00 0.95 0.93 0.98 1.07 1.06 1.06 1.07 1.09 1.10 1.13 1.14 1.10 1.08 1.07
0.92 0.93 0.93 0.96 1.00 1.06 1.09 1.17 1.27 1.37 1.41 1.32 1.17 1.04 0.91 0.83 0.74 0.69 0.68 0.67 0.74 0.85 1.00 1.05 1.07 1.07 1.00 0.97 0.97 0.93 0.91 0.93 1.03 1.09 1.07 1.08 1.09 1.11 1.10 1.07 1.10 1.09 1.00
0.85 0.83 0.83 0.85 0.85 0.85 0.87 0.95 1.04 1.15 1.20 1.15 1.06 0.96 0.84 0.80 0.71 0.66 0.61 0.60 0.68 0.77 0.86 0.93 0.97 0.95 0.89 0.90 0.92 0.90 0.88 0.94 1.05 1.08 1.06 1.08 1.12 1.11 1.03 1.01 1.03 1.06 0.99
0.85 0.77 0.72 0.73 0.73 0.75 0.80 0.85 0.89 0.93 0.99 0.95 0.88 0.76 0.69 0.65 0.59 0.55 0.56 0.59 0.68 0.77 0.84 0.88 0.88 0.85 0.83 0.86 0.91 0.93 0.91 0.97 1.04 1.06 1.06 1.10 1.14 1.13 1.06 1.03 1.01 1.02 1.02
0.83 0.74 0.66 0.63 0.66 0.68 0.69 0.76 0.82 0.83 0.80 0.77 0.72 0.59 0.56 0.54 0.49 0.46 0.49 0.55 0.62 0.73 0.75 0.74 0.77 0.78 0.76 0.77 0.83 0.90 0.94 0.99 1.07 1.08 1.06 1.08 1.11 1.11 1.13 1.10 1.09 1.05 1.06
0.85 0.72 0.62 0.57 0.59 0.60 0.63 0.72 0.79 0.77 0.69 0.64 0.60 0.56 0.55 0.57 0.49 0.46 0.51 0.59 0.66 0.68 0.65 0.65 0.70 0.73 0.73 0.74 0.74 0.82 0.89 0.95 1.00 1.01 1.07 1.10 1.08 1.06 1.07 1.02 1.01 1.03 1.02
0.81 0.72 0.63 0.54 0.55 0.60 0.63 0.69 0.73 0.72 0.66 0.61 0.57 0.55 0.56 0.59 0.55 0.54 0.59 0.70 0.69 0.62 0.61 0.64 0.67 0.69 0.71 0.76 0.75 0.75 0.79 0.84 0.84 0.85 0.87 0.92 0.95 0.96 0.98 0.97 0.96 0.95 0.98
0.80 0.72 0.62 0.52 0.51 0.55 0.58 0.63 0.67 0.68 0.65 0.59 0.58 0.59 0.61 0.64 0.62 0.61 0.64 0.65 0.62 0.58 0.54 0.58 0.64 0.65 0.68 0.70 0.71 0.72 0.71 0.68 0.68 0.71 0.74 0.78 0.83 0.91 0.97 0.97 0.97 0.96 0.96
0.73 0.66 0.60 0.53 0.46 0.47 0.54 0.61 0.63 0.62 0.60 0.57 0.56 0.58 0.58 0.57 0.55 0.51 0.49 0.49 0.49 0.49 0.49 0.54 0.60 0.62 0.66 0.67 0.60 0.57 0.54 0.49 0.52 0.60 0.63 0.71 0.82 0.89 0.93 0.98 0.97 0.98 0.96